Flag for Germany Weather past 2 weeks in Hemer, North Rhine-Westphalia, Germany

Now
50 °F

Overcast.


Feels Like: 43 °F
Forecast: 47 / 49 °F
Wind: 25 mph from Southwest

Location: Dortmund / Wickede

Current Time: Dec 22, 2014 at 5:01:36 PM

Latest Report: Dec 22, 2014 at 4:20 PM


Visibility: N/A

Pressure: 30.01 "Hg

Humidity: 82%

Dew point: 45 °F

Location of HemerLocation

Historic Weather in Hemer — Graph

°F

Hemer temperature yesterday

Maximum temperature yesterday: 45 °F (at 2:20 PM)
Minimum temperature yesterday: 39 °F (at 5:20 AM)
Average temperature yesterday: 43 °F

Past Weeks' High & Low Weather Summary

 TemperatureHumidityPressure
High54 °F (Dec 18, 5:20 PM)93% (Dec 8, 7:50 PM)30.36 "Hg (Dec 8, 7:50 PM)
Low32 °F (Dec 14, 10:50 PM)61% (Dec 7, 3:20 PM)29.39 "Hg (Dec 12, 12:50 PM)
Average42 °F82%29.92 "Hg
* Reported Dec 7 3:20 PM — Dec 22 3:50 PM, Hemer, Weather by CustomWeather, © 2014

Note: Actual official high and low records may vary slightly from our data, if they occured in-between our weather recording intervals... More about our weather records

Advertising

Hemer weather history for previous 24 hours

 ConditionsComfort  
Time TempWeatherWind HumidityBarometerVisibility
3:50 PM
Dec 22
50 °FDrizzle. Overcast.24 mph82%30.01 "HgN/A
3:20 PM48 °FDrizzle. Overcast.26 mph87%30.01 "HgN/A
2:50 PM48 °FLight rain. Overcast.26 mph82%30.01 "HgN/A
2:20 PM48 °FDrizzle. Fog.26 mph82%30.01 "Hg3 mi
1:50 PM48 °FFog.29 mph82%30.01 "Hg3 mi
1:20 PM48 °FDrizzle. Partly sunny.30 mph82%30.01 "Hg4 mi
12:50 PM48 °FPartly sunny.31 mph82%30.01 "HgN/A
12:20 PM46 °FDrizzle. Partly sunny.32 mph87%30.01 "Hg4 mi
11:50 AM46 °FDrizzle. Partly sunny.28 mph87%30.04 "HgN/A
11:20 AM46 °FPartly sunny.31 mph82%30.04 "HgN/A
10:50 AM46 °FPartly sunny.32 mph82%30.04 "HgN/A
10:20 AM46 °FPartly sunny.29 mph82%30.04 "HgN/A
9:50 AM46 °FPartly sunny.28 mph82%30.04 "HgN/A
9:20 AM46 °FPartly sunny.31 mph82%30.04 "HgN/A
8:50 AM46 °FPartly sunny.29 mph82%30.04 "HgN/A
8:20 AM46 °FPassing clouds.32 mph82%30.04 "HgN/A
7:50 AM46 °FPassing clouds.29 mph82%30.04 "HgN/A
7:20 AM46 °FLight rain. Passing clouds.28 mph87%30.04 "HgN/A
6:50 AM46 °FPassing clouds.26 mph82%30.04 "HgN/A
6:20 AM46 °FPassing clouds.23 mph82%30.07 "HgN/A
5:50 AM46 °FPassing clouds.24 mph82%30.07 "HgN/A
5:20 AM46 °FLight rain. Overcast.24 mph82%30.07 "HgN/A
10:50 PM
Dec 21
45 °FLight rain. Passing clouds.24 mph87%30.15 "HgN/A
10:20 PM45 °FPassing clouds.24 mph87%30.15 "HgN/A
9:50 PM45 °FLight rain. Passing clouds.22 mph87%30.18 "HgN/A
9:20 PM45 °FLight rain. Passing clouds.23 mph87%30.18 "HgN/A
8:50 PM45 °FLight rain. Passing clouds.22 mph87%30.18 "HgN/A
8:20 PM45 °FLight rain. Passing clouds.21 mph87%30.18 "HgN/A
7:50 PM45 °FLight rain. Passing clouds.18 mph87%30.18 "Hg6 mi
7:20 PM45 °FPassing clouds.18 mph87%30.21 "Hg4 mi
6:50 PM45 °FLight rain. Passing clouds.20 mph87%30.21 "Hg4 mi
6:20 PM45 °FPassing clouds.21 mph81%30.21 "Hg4 mi
5:50 PM45 °FOvercast.20 mph81%30.21 "Hg5 mi
5:20 PM45 °FPassing clouds.22 mph81%30.21 "Hg4 mi
Weather by CustomWeather, © 2014

See weather overviewHow to use our weather pages